FW2935 Weather Reports


time (UTC)temp
C
wind
direction
speed
KPH
gust
KPH
rain 1hr
cm
rain 24hr
cm
rain mn
cm
humidity
%
barometer
mb
20190919150001 23 279 14.5 20.9 0.00 0.00 0.00 60 1013.1
20190919145457 23 280 9.7 17.7 0.00 0.00 0.00 60 1013.2
20190919144958 23 278 12.9 17.7 0.00 0.00 0.00 59 1013.1
20190919144502 24 284 9.7 19.3 0.00 0.00 0.00 57 1013.2
20190919143958 24 299 8.0 19.3 0.00 0.00 0.00 55 1013.1
20190919143458 24 304 8.0 17.7 0.00 0.00 0.00 56 1013.3
20190919143001 23 297 9.7 17.7 0.00 0.00 0.00 58 1013.3
20190919142458 23 308 12.9 17.7 0.00 0.00 0.00 58 1013.1
20190919141958 23 294 11.3 17.7 0.00 0.00 0.00 58 1013.1
20190919141501 23 295 9.7 16.1 0.00 0.00 0.00 58 1013.1
20190919140958 23 301 11.3 19.3 0.00 0.00 0.00 56 1013.3
20190919140458 23 259 11.3 19.3 0.00 0.00 0.00 57 1013.3
20190919140001 23 235 6.4 17.7 0.00 0.00 0.00 60 1013.3
20190919135458 23 267 6.4 22.5 0.00 0.00 0.00 60 1013.3
20190919134958 23 268 11.3 22.5 0.00 0.00 0.00 60 1013.5
20190919134501 23 254 12.9 19.3 0.00 0.00 0.00 60 1013.6
20190919133958 23 258 12.9 19.3 0.00 0.00 0.00 61 1013.8
20190919133458 23 268 9.7 22.5 0.00 0.00 0.00 62 1013.9
20190919133001 23 264 8.0 24.1 0.00 0.00 0.00 62 1013.8
20190919132458 23 263 12.9 24.1 0.00 0.00 0.00 61 1014.1
20190919131958 23 274 12.9 17.7 0.00 0.00 0.00 62 1014.2
20190919131501 23 283 16.1 17.7 0.00 0.00 0.00 62 1014.0
20190919130958 22 287 11.3 17.7 0.00 0.00 0.00 62 1014.1
20190919130458 22 277 8.0 14.5 0.00 0.00 0.00 62 1014.0
20190919130002 22 264 8.0 16.1 0.00 0.00 0.00 62 1014.1
20190919125458 22 262 6.4 16.1 0.00 0.00 0.00 62 1014.2
20190919124958 22 271 12.9 16.1 0.00 0.00 0.00 62 1014.3
20190919124501 23 294 6.4 17.7 0.00 0.00 0.00 61 1014.3
20190919123958 23 292 11.3 17.7 0.00 0.00 0.00 62 1014.1
20190919123458 22 260 6.4 17.7 0.00 0.00 0.00 62 1014.4
20190919123001 22 235 11.3 17.7 0.00 0.00 0.00 63 1014.5
20190919122458 22 214 8.0 12.9 0.00 0.00 0.00 64 1014.4
20190919121958 22 232 9.7 16.1 0.00 0.00 0.00 68 1014.6
20190919121502 22 279 8.0 16.1 0.00 0.00 0.00 68 1014.5
20190919120958 21 312 8.0 16.1 0.00 0.00 0.00 70 1014.6
20190919120458 21 309 9.7 16.1 0.00 0.00 0.00 70 1014.8
20190919120002 21 260 8.0 17.7 0.00 0.00 0.00 69 1014.8
20190919115458 21 221 6.4 17.7 0.00 0.00 0.00 70 1015.0
20190919114959 21 251 6.4 16.1 0.00 0.00 0.00 70 1014.9
20190919114501 21 268 12.9 16.1 0.00 0.00 0.00 70 1015.1
20190919113959 21 281 9.7 12.9 0.00 0.00 0.00 70 1015.0
20190919113458 21 282 8.0 12.9 0.00 0.00 0.00 70 1015.1
20190919113001 21 269 6.4 12.9 0.00 0.00 0.00 70 1015.0
20190919112458 21 281 8.0 12.9 0.00 0.00 0.00 70 1015.1
20190919111959 21 342 4.8 9.7 0.00 0.00 0.00 70 1015.1
20190919111501 21 54 3.2 6.4 0.00 0.00 0.00 70 1015.1
20190919110958 21 31 1.6 6.4 0.00 0.00 0.00 70 1015.1
20190919110458 21 17 3.2 6.4 0.00 0.00 0.00 70 1015.1
20190919110002 21 45 3.2 9.7 0.00 0.00 0.00 71 1014.9
20190919105458 21 45 4.8 11.3 0.00 0.00 0.00 70 1015.0
20190919104958 21 44 6.4 11.3 0.00 0.00 0.00 70 1014.9
20190919104501 21 55 6.4 8.0 0.00 0.10 0.00 70 1014.9
20190919103958 21 42 4.8 8.0 0.00 0.10 0.00 70 1015.0
20190919103458 21 21 4.8 8.0 0.00 0.10 0.00 70 1015.0
20190919103001 21 11 3.2 8.0 0.00 0.10 0.00 70 1015.1
20190919102458 21 17 6.4 8.0 0.00 0.10 0.00 70 1015.1
20190919101958 21 56 6.4 8.0 0.00 0.10 0.00 71 1015.1
20190919101501 21 69 4.8 8.0 0.00 0.10 0.00 71 1015.1
20190919100959 21 24 3.2 8.0 0.00 0.10 0.00 71 1015.1
20190919100458 21 18 3.2 8.0 0.00 0.10 0.00 71 1015.1
20190919100003 21 29 6.4 9.7 0.00 0.10 0.00 71 1015.2
20190919095458 20 41 6.4 9.7 0.00 0.10 0.00 70 1015.2
20190919094959 21 67 6.4 9.7 0.00 0.10 0.00 70 1015.3
20190919094503 21 102 3.2 8.0 0.00 0.10 0.00 70 1015.3
20190919093959 21 69 4.8 8.0 0.00 0.10 0.00 70 1015.3
20190919093458 21 85 4.8 8.0 0.00 0.10 0.00 71 1015.3
20190919093002 21 63 3.2 9.7 0.00 0.10 0.00 71 1015.3
20190919092458 20 44 3.2 9.7 0.00 0.10 0.00 71 1015.3
20190919092010 20 38 6.4 9.7 0.00 0.10 0.00 71 1015.1
20190919091502 20 45 4.8 9.7 0.00 0.10 0.00 71 1015.1
20190919090958 20 46 6.4 9.7 0.00 0.10 0.00 71 1015.0
20190919090459 20 40 6.4 9.7 0.00 0.10 0.00 71 1015.0
20190919090001 20 30 6.4 9.7 0.00 0.10 0.00 72 1014.8
20190919085458 20 3 6.4 9.7 0.00 0.10 0.00 72 1014.7
20190919084959 20 352 4.8 9.7 0.00 0.10 0.00 72 1014.8
20190919084501 20 0 0.0 11.3 0.00 0.10 0.00 72 1014.8
20190919083959 20 36 6.4 11.3 0.00 0.10 0.00 72 1014.5
20190919083458 20 42 6.4 9.7 0.00 0.10 0.00 73 1014.6
20190919083002 19 29 4.8 11.3 0.00 0.10 0.00 73 1014.6
20190919082458 19 25 6.4 12.9 0.00 0.10 0.00 74 1014.6
20190919081959 19 24 8.0 12.9 0.00 0.10 0.00 74 1014.6
20190919081501 19 10 6.4 9.7 0.00 0.10 0.00 75 1014.6
20190919080959 19 13 4.8 9.7 0.00 0.10 0.00 75 1014.6
20190919080458 18 28 4.8 9.7 0.00 0.10 0.00 75 1014.6
20190919080001 18 33 6.4 8.0 0.00 0.10 0.00 76 1014.6
20190919075459 18 16 1.6 6.4 0.00 0.10 0.00 76 1014.5
20190919074958 18 16 3.2 8.0 0.00 0.10 0.00 76 1014.6
20190919074501 18 10 4.8 9.7 0.00 0.10 0.00 76 1014.4
20190919073958 18 351 6.4 9.7 0.00 0.10 0.00 77 1014.5
20190919073459 18 338 6.4 9.7 0.00 0.10 0.00 77 1014.5
20190919073001 18 339 6.4 9.7 0.00 0.10 0.00 77 1014.5
20190919072459 18 350 6.4 9.7 0.00 0.10 0.00 77 1014.5
20190919071958 18 354 6.4 9.7 0.00 0.10 0.00 78 1014.4
20190919071502 18 352 4.8 11.3 0.00 0.10 0.00 78 1014.4
20190919070958 18 354 4.8 11.3 0.00 0.10 0.00 78 1014.3
20190919070458 18 347 4.8 11.3 0.00 0.10 0.00 79 1014.4
20190919070002 18 341 4.8 11.3 0.00 0.10 0.00 80 1014.5
20190919065458 18 349 8.0 11.3 0.00 0.10 0.00 80 1014.3
20190919064959 18 350 6.4 8.0 0.00 0.10 0.00 81 1014.3
20190919064501 18 334 3.2 8.0 0.00 0.10 0.00 81 1014.2
20190919063959 18 319 6.4 6.4 0.00 0.10 0.00 82 1014.1
20190919063458 18 293 3.2 4.8 0.00 0.10 0.00 82 1014.1
20190919063002 18 284 3.2 4.8 0.00 0.10 0.00 82 1014.2
20190919062458 18 292 3.2 4.8 0.00 0.10 0.00 82 1014.1
20190919061959 18 288 3.2 4.8 0.00 0.10 0.00 82 1014.1
20190919061502 18 270 3.2 4.8 0.00 0.10 0.00 82 1014.0
20190919060959 18 262 3.2 3.2 0.00 0.10 0.00 81 1013.9
20190919060458 18 255 3.2 6.4 0.00 0.10 0.00 81 1013.9
20190919060002 17 246 3.2 6.4 0.00 0.10 0.00 81 1014.0
20190919055458 17 258 4.8 6.4 0.00 0.10 0.00 80 1013.9
20190919054959 18 266 1.6 6.4 0.00 0.10 0.00 80 1013.9
20190919054501 18 266 3.2 6.4 0.00 0.10 0.00 80 1013.9
20190919053959 18 256 3.2 6.4 0.00 0.10 0.00 79 1013.8
20190919053459 18 256 3.2 6.4 0.00 0.10 0.00 78 1013.8
20190919053002 18 268 3.2 6.4 0.00 0.10 0.00 77 1013.8
20190919052458 18 266 4.8 6.4 0.00 0.10 0.00 77 1013.8
20190919051959 18 250 3.2 6.4 0.00 0.10 0.00 77 1013.8
20190919051502 18 255 3.2 6.4 0.00 0.10 0.00 77 1013.8
20190919050958 18 288 3.2 4.8 0.00 0.10 0.00 76 1013.7
20190919050458 18 283 1.6 4.8 0.00 0.10 0.00 76 1013.7
20190919050002 18 292 3.2 4.8 0.00 0.10 0.00 76 1013.8
20190919045459 18 322 3.2 9.7 0.00 0.10 0.00 76 1013.8
20190919044958 18 324 3.2 9.7 0.00 0.10 0.00 76 1013.8
20190919044502 18 349 3.2 6.4 0.00 0.10 0.00 76 1013.8
20190919043959 18 8 3.2 6.4 0.00 0.10 0.00 76 1013.7
20190919043459 18 2 4.8 6.4 0.00 0.10 0.00 76 1013.7
20190919043001 18 357 3.2 6.4 0.00 0.10 0.00 76 1013.7
20190919042459 18 354 3.2 9.7 0.00 0.10 0.00 76 1013.8
20190919041959 18 356 3.2 9.7 0.00 0.10 0.00 77 1013.9
20190919041502 18 337 6.4 17.7 0.00 0.10 0.00 78 1014.0
20190919040958 18 328 8.0 17.7 0.00 0.10 0.00 79 1013.9
20190919040458 18 338 6.4 8.0 0.00 0.10 0.00 80 1014.1
20190919040002 18 326 6.4 8.0 0.00 0.10 0.00 80 1014.0
20190919035458 18 304 3.2 6.4 0.00 0.10 0.00 80 1013.9
20190919034959 18 286 3.2 6.4 0.00 0.10 0.00 80 1013.9
20190919034501 18 278 3.2 6.4 0.00 0.10 0.00 80 1013.9
20190919033959 18 284 3.2 3.2 0.00 0.10 0.00 80 1014.0
20190919033459 18 282 3.2 4.8 0.00 0.10 0.00 79 1013.9
20190919033001 18 270 3.2 4.8 0.00 0.10 0.00 79 1014.0
20190919032458 18 272 3.2 6.4 0.00 0.10 0.00 79 1014.1
20190919031959 18 282 3.2 6.4 0.00 0.10 0.00 79 1014.0
20190919031502 18 283 3.2 6.4 0.00 0.10 0.00 79 1014.1
20190919030958 18 276 3.2 6.4 0.00 0.10 0.00 79 1014.0
20190919030459 18 279 3.2 6.4 0.00 0.10 0.00 79 1014.1
20190919030003 18 271 3.2 6.4 0.00 0.10 0.00 78 1014.1
20190919025458 18 263 3.2 6.4 0.00 0.10 0.00 78 1014.1
20190919024959 18 273 4.8 6.4 0.00 0.10 0.00 78 1014.2
20190919024501 18 284 3.2 6.4 0.00 0.10 0.00 78 1014.2
20190919023959 18 293 3.2 6.4 0.00 0.10 0.00 78 1014.2
20190919023458 18 307 3.2 4.8 0.00 0.10 0.00 78 1014.3
20190919023003 18 320 3.2 6.4 0.00 0.10 0.00 77 1014.2
20190919022459 18 340 1.6 8.0 0.00 0.10 0.00 77 1014.2
20190919021959 18 341 4.8 8.0 0.00 0.10 0.00 77 1014.2
20190919021501 18 318 6.4 8.0 0.00 0.10 0.00 77 1014.2
20190919020959 18 321 3.2 6.4 0.00 0.10 0.00 77 1014.4
20190919020458 18 325 3.2 6.4 0.00 0.10 0.00 78 1014.5
20190919020002 18 322 3.2 6.4 0.00 0.10 0.00 78 1014.4
20190919015458 18 315 3.2 6.4 0.00 0.10 0.00 78 1014.3
20190919014959 18 324 3.2 6.4 0.00 0.10 0.00 78 1014.4
20190919014501 18 318 3.2 6.4 0.00 0.10 0.00 79 1014.4
20190919013959 18 290 3.2 6.4 0.00 0.10 0.00 79 1014.6
20190919013458 18 275 3.2 6.4 0.00 0.10 0.00 79 1014.5
20190919013002 18 290 3.2 4.8 0.00 0.10 0.00 79 1014.5
20190919012459 18 284 1.6 4.8 0.00 0.10 0.00 79 1014.6
20190919011959 18 274 3.2 4.8 0.00 0.10 0.00 79 1014.7
20190919011502 19 274 3.2 4.8 0.00 0.10 0.00 79 1014.8
20190919010959 19 325 3.2 4.8 0.00 0.10 0.00 80 1014.9
20190919010458 19 357 3.2 6.4 0.00 0.10 0.00 80 1014.9
20190919010002 19 333 3.2 8.0 0.00 0.10 0.00 80 1014.8
20190919005459 19 317 3.2 8.0 0.00 0.10 0.00 80 1014.9
20190919004959 18 319 3.2 6.4 0.00 0.10 0.00 80 1015.1
20190919004501 19 317 4.8 6.4 0.00 0.10 0.00 80 1015.0
20190919003959 19 341 4.8 6.4 0.00 0.10 0.00 80 1015.0
20190919003458 19 349 3.2 9.7 0.00 0.10 0.00 80 1015.1
20190919003002 19 345 3.2 11.3 0.00 0.10 0.00 80 1015.0
20190919002458 19 332 6.4 11.3 0.00 0.10 0.00 80 1015.0
20190919001959 19 348 4.8 12.9 0.00 0.10 0.00 80 1015.1
20190919001502 19 351 8.0 12.9 0.00 0.10 0.00 80 1015.0
20190919000958 18 342 3.2 8.0 0.00 0.10 0.00 79 1015.0
20190919000459 18 329 4.8 8.0 0.00 0.10 0.00 79 1015.1
20190919000002 18 292 4.8 9.7 0.00 0.10 0.00 79 1015.2
20190918235459 18 300 4.8 9.7 0.00 0.10 0.00 79 1015.2
20190918234958 18 294 3.2 6.4 0.00 0.10 0.00 78 1015.1
20190918234502 18 282 3.2 6.4 0.00 0.10 0.00 78 1015.0
20190918233959 18 281 3.2 6.4 0.00 0.10 0.00 78 1015.0
20190918233459 18 278 3.2 6.4 0.00 0.10 0.00 77 1015.1
20190918233002 19 294 3.2 6.4 0.00 0.10 0.00 77 1014.9
20190918232459 19 304 3.2 6.4 0.00 0.10 0.00 77 1015.1
20190918231959 19 287 3.2 8.0 0.00 0.10 0.00 77 1015.1
20190918231502 19 289 6.4 8.0 0.00 0.10 0.00 76 1015.1
20190918230959 19 319 3.2 6.4 0.00 0.10 0.00 76 1015.1
20190918230458 19 315 3.2 6.4 0.00 0.10 0.00 76 1015.0
20190918230003 19 317 3.2 6.4 0.00 0.10 0.00 76 1015.0
20190918225459 19 332 3.2 8.0 0.00 0.10 0.10 76 1015.3
20190918224959 19 319 4.8 8.0 0.00 0.10 0.10 75 1015.1
20190918224502 19 319 4.8 12.9 0.00 0.10 0.10 75 1015.0
20190918223959 19 321 4.8 12.9 0.00 0.10 0.10 75 1015.1
20190918223459 19 339 6.4 11.3 0.00 0.10 0.10 75 1015.0
20190918223002 19 337 6.4 11.3 0.00 0.10 0.10 74 1015.1
20190918222459 19 303 4.8 12.9 0.00 0.10 0.10 74 1015.0
20190918221959 19 299 3.2 12.9 0.00 0.10 0.10 74 1015.0
20190918221502 19 319 9.7 12.9 0.00 0.10 0.10 73 1015.1
20190918220959 19 322 6.4 12.9 0.00 0.10 0.10 73 1015.1
20190918220459 19 326 9.7 12.9 0.00 0.10 0.10 73 1015.0
20190918220002 19 339 9.7 12.9 0.00 0.10 0.10 73 1015.0
20190918215459 20 329 6.4 9.7 0.00 0.10 0.10 73 1015.2
20190918214959 19 305 4.8 9.7 0.00 0.10 0.10 73 1015.1
20190918214502 19 306 4.8 9.7 0.00 0.10 0.10 72 1015.3
20190918213959 19 310 6.4 11.3 0.00 0.10 0.10 72 1015.2
20190918213459 19 313 6.4 11.3 0.00 0.10 0.10 72 1015.1
20190918213002 19 348 6.4 9.7 0.00 0.10 0.10 72 1015.1
20190918212459 19 341 6.4 8.0 0.00 0.10 0.10 72 1015.1
20190918211958 19 340 4.8 8.0 0.00 0.10 0.10 72 1015.1
20190918211502 19 331 3.2 8.0 0.00 0.10 0.10 72 1015.1
20190918210959 19 330 3.2 12.9 0.00 0.10 0.10 72 1015.1
20190918210459 19 342 6.4 12.9 0.00 0.10 0.10 73 1015.1
20190918210002 19 339 6.4 14.5 0.00 0.10 0.10 73 1014.9
20190918205459 19 336 9.7 14.5 0.00 0.10 0.10 73 1015.0
20190918204959 19 346 6.4 14.5 0.00 0.10 0.10 73 1014.9
20190918204502 19 349 8.0 12.9 0.00 0.10 0.10 73 1014.9
20190918203959 19 355 4.8 12.9 0.00 0.10 0.10 73 1014.9
20190918203459 19 354 9.7 12.9 0.00 0.10 0.10 73 1014.9
20190918203002 19 332 8.0 12.9 0.00 0.10 0.10 73 1014.9
20190918202459 19 335 8.0 17.7 0.00 0.10 0.10 73 1015.0
20190918201959 19 328 9.7 17.7 0.00 0.10 0.10 73 1014.8
20190918201502 19 303 8.0 14.5 0.00 0.10 0.10 73 1014.8
20190918200959 19 313 8.0 17.7 0.00 0.10 0.10 73 1014.8
20190918200500 19 340 9.7 24.1 0.00 0.10 0.10 73 1014.8
20190918200002 19 356 12.9 24.1 0.00 0.10 0.10 73 1014.8
20190918195459 19 336 8.0 20.9 0.00 0.10 0.10 72 1014.8
20190918194959 20 331 14.5 20.9 0.00 0.10 0.10 72 1014.8
20190918194503 20 332 16.1 19.3 0.00 0.10 0.10 71 1014.8
20190918193959 20 307 6.4 17.7 0.00 0.10 0.10 70 1014.7
20190918193459 20 299 11.3 17.7 0.00 0.10 0.10 70 1014.7
20190918193002 20 290 11.3 16.1 0.00 0.10 0.10 70 1014.8
20190918192459 20 287 8.0 17.7 0.00 0.10 0.10 69 1014.7
20190918191958 20 289 11.3 17.7 0.00 0.10 0.10 68 1014.6
20190918191502 20 300 6.4 16.1 0.00 0.10 0.10 68 1014.6
20190918190959 20 309 9.7 16.1 0.00 0.10 0.10 67 1014.5
20190918190459 20 311 12.9 19.3 0.00 0.10 0.10 67 1014.4
20190918190002 21 308 6.4 19.3 0.00 0.10 0.10 66 1014.3
20190918185459 21 293 6.4 14.5 0.00 0.10 0.10 66 1014.3
20190918184959 21 279 9.7 17.7 0.00 0.10 0.10 65 1014.3
20190918184502 21 270 6.4 20.9 0.00 0.10 0.10 65 1014.3
20190918183959 21 284 9.7 20.9 0.00 0.10 0.10 65 1014.3
20190918183459 21 283 8.0 17.7 0.00 0.10 0.10 65 1014.3
20190918183002 21 271 12.9 17.7 0.00 0.10 0.10 65 1014.3
20190918182459 21 277 12.9 17.7 0.00 0.10 0.10 65 1014.4
20190918181959 21 260 9.7 17.7 0.00 0.10 0.10 65 1014.4
20190918181502 21 253 6.4 17.7 0.00 0.10 0.10 65 1014.2
20190918180959 21 258 12.9 17.7 0.00 0.10 0.10 65 1014.4
20190918180459 21 255 8.0 17.7 0.00 0.10 0.10 65 1014.3
20190918180003 21 270 9.7 17.7 0.00 0.10 0.10 65 1014.2
20190918175459 21 250 12.9 17.7 0.00 0.10 0.10 65 1014.1
20190918174959 21 231 11.3 17.7 0.00 0.10 0.10 65 1014.1
20190918174502 21 237 12.9 20.9 0.00 0.10 0.10 65 1014.1
20190918174000 21 249 12.9 20.9 0.00 0.10 0.10 65 1014.0
20190918173459 21 275 11.3 19.3 0.00 0.10 0.10 64 1013.9
20190918173002 21 277 16.1 22.5 0.00 0.10 0.10 64 1014.0
20190918172459 21 268 12.9 22.5 0.00 0.10 0.10 63 1013.9
20190918171959 21 251 12.9 24.1 0.00 0.10 0.10 63 1013.9
20190918171502 21 237 16.1 24.1 0.00 0.10 0.10 62 1013.8
20190918170959 22 228 12.9 22.5 0.00 0.10 0.10 62 1013.8
20190918170459 22 229 12.9 22.5 0.00 0.10 0.10 63 1013.7
20190918170002 22 234 12.9 24.1 0.00 0.10 0.10 63 1013.7
20190918165459 21 232 12.9 24.1 0.00 0.10 0.10 62 1013.8
20190918164959 21 253 17.7 22.5 0.00 0.10 0.10 63 1013.8
20190918164503 21 289 12.9 19.3 0.00 0.10 0.10 63 1013.8
20190918163959 21 270 12.9 22.5 0.00 0.10 0.10 64 1013.9
20190918163459 21 270 12.9 22.5 0.00 0.10 0.10 64 1013.8
20190918163003 21 272 16.1 25.7 0.00 0.10 0.10 63 1013.8
20190918162459 22 260 17.7 29.0 0.00 0.10 0.10 62 1013.9
20190918161959 22 253 17.7 29.0 0.00 0.10 0.10 61 1013.9
20190918161503 22 246 22.5 29.0 0.00 0.10 0.10 57 1013.7
20190918160959 22 250 12.9 25.7 0.00 0.10 0.10 57 1013.8
20190918160459 22 255 11.3 24.1 0.00 0.10 0.10 57 1013.8
20190918160002 22 255 19.3 24.1 0.00 0.10 0.10 57 1013.7
20190918155459 22 256 17.7 29.0 0.00 0.10 0.10 56 1013.8
20190918154959 22 247 17.7 30.6 0.00 0.10 0.10 57 1013.6
20190918154503 22 234 24.1 30.6 0.00 0.10 0.10 56 1013.6
20190918154000 22 242 16.1 27.4 0.00 0.10 0.10 56 1013.8
20190918153459 23 240 24.1 27.4 0.00 0.10 0.10 54 1013.6
20190918153003 23 240 9.7 24.1 0.00 0.10 0.10 54 1013.6
20190918152459 23 251 14.5 25.7 0.00 0.10 0.10 54 1013.6
20190918151959 23 260 16.1 25.7 0.00 0.10 0.10 55 1013.7
20190918151502 23 244 14.5 27.4 0.00 0.10 0.10 54 1013.6
20190918151000 23 241 20.9 27.4 0.00 0.10 0.10 55 1013.8
20190918150459 23 263 16.1 27.4 0.00 0.10 0.10 54 1013.7